TimeMDT,TemperatureF,Dew PointF,Humidity,Sea Level PressureIn,VisibilityMPH,Wind Direction,Wind SpeedMPH,Gust SpeedMPH,PrecipitationIn,Events,Conditions,WindDirDegrees,DateUTC
12:00 AM,13,10,79,30.04,,North,6.9,,,,,0,2012-10-08 06:00:00
12:00 AM,13.5,9.5,84,30.04,-9999.0,North,6.9,-,N/A,,Unknown,360,2012-10-08 06:00:00
1:00 AM,14.7,10.9,85,30.02,-9999.0,North,5.8,-,N/A,,Unknown,360,2012-10-08 07:00:00
3:00 AM,16.7,13.3,86,29.99,-9999.0,West,1.2,-,N/A,,Unknown,270,2012-10-08 09:00:00
4:00 AM,19.2,13.8,80,29.97,-9999.0,NW,9.2,-,N/A,,Unknown,310,2012-10-08 10:00:00
5:00 AM,18.0,13.8,84,29.95,-9999.0,NNW,3.5,-,N/A,,Unknown,330,2012-10-08 11:00:00
6:00 AM,18,16,88,29.92,,NNW,4.6,,,,,340,2012-10-08 12:00:00
6:00 AM,18.3,16.0,91,29.92,-9999.0,NNW,4.6,-,N/A,,Unknown,340,2012-10-08 12:00:00
7:00 AM,18.0,15.8,91,29.90,-9999.0,NW,4.6,-,N/A,,Unknown,320,2012-10-08 13:00:00
8:00 AM,20.8,15.8,81,29.87,-9999.0,West,16.1,-,0.01,,Unknown,270,2012-10-08 14:00:00
9:00 AM,20.5,18.3,91,29.85,-9999.0,West,18.4,-,N/A,,Unknown,270,2012-10-08 15:00:00
10:00 AM,20.7,17.1,86,29.83,-9999.0,West,20.7,-,N/A,,Unknown,260,2012-10-08 16:00:00
11:00 AM,21.0,17.1,85,29.82,-9999.0,West,18.4,-,N/A,,Unknown,260,2012-10-08 17:00:00
12:00 PM,21,17,76,29.80,,West,18.4,,,,,260,2012-10-08 18:00:00
12:00 PM,21.0,16.7,83,29.80,-9999.0,West,18.4,-,N/A,,Unknown,260,2012-10-08 18:00:00
1:00 PM,21.6,18.7,89,29.79,-9999.0,West,19.6,-,N/A,,Unknown,260,2012-10-08 19:00:00
2:00 PM,21.7,18.7,88,29.78,-9999.0,West,19.6,-,N/A,,Unknown,260,2012-10-08 20:00:00
3:00 PM,21.2,17.1,84,29.77,-9999.0,West,15.0,-,N/A,,Unknown,270,2012-10-08 21:00:00
4:00 PM,21.2,18.0,87,29.77,-9999.0,West,11.5,-,N/A,,Unknown,270,2012-10-08 22:00:00
6:00 PM,21,20,92,29.74,,West,10.4,,,,,260,2012-10-09 00:00:00
6:00 PM,21.0,19.6,94,29.74,-9999.0,West,10.4,-,0.06,,Unknown,260,2012-10-09 00:00:00
7:00 PM,21.2,19.2,92,29.73,-9999.0,WSW,12.7,-,0.02,,Unknown,240,2012-10-09 01:00:00
9:00 PM,16.9,14.4,90,29.70,-9999.0,ENE,9.2,-,N/A,,Unknown,70,2012-10-09 03:00:00
10:00 PM,17.2,14.9,91,29.68,-9999.0,ENE,11.5,-,N/A,,Unknown,70,2012-10-09 04:00:00
11:00 PM,16.0,13.5,90,29.67,-9999.0,ENE,18.4,-,N/A,,Unknown,60,2012-10-09 05:00:00